This demonstration page uses our WeatherBlox Daily Observations layout. Learn more.

Left ArrowRight Arrow

Hourly Observations for April 16, 2018

Temp ( °F °C ) Dew Point ( °F °C ) Humidity (%) Winds ( mph kmh ) Pressure ( in mb ) Visibility ( mi km ) Precip ( " mm )
12:59 am 00:59 Cloudy 73 22.8 65 18.3 76 76 S 20 31 29.72 1006 9 14 0.00 0.00
1:59 am 01:59 Cloudy 73 22.8 65 18.3 76 76 SSE 22 35 29.66 1004 9 14 0.00 0.00
2:17 am 02:17 Cloudy 73 22.8 65 18.3 76 76 S 18 30 29.65 1004 9 14 0.00 0.00
2:29 am 02:29 Cloudy with Light Rain 72 22.2 65 18.3 79 79 S 20 31 29.65 1004 7 11 0.00 0.03
2:59 am 02:59 Cloudy with Light Rain 71 21.7 66 18.9 84 84 SSE 21 33 29.62 1003 5 8 0.02 0.51
3:16 am 03:16 Cloudy with Rain 70 21.1 66 18.9 87 87 SSE 18 30 29.62 1003 3 5 0.09 2.29
3:31 am 03:31 Cloudy with Rain 70 21.1 66 18.9 87 87 S 16 26 29.62 1003 3 5 0.16 4.06
3:44 am 03:44 Cloudy with Heavy Rain 70 21.1 66 18.9 87 87 S 17 28 29.59 1002 1 2 0.30 7.62
3:55 am 03:55 Cloudy with Rain 70 21 66 19 88 88 SSE 16 26 29.56 1001 3 4 0.36 9.14
3:59 am 03:59 Cloudy with Heavy Rain 69 20.6 66 18.9 90 90 SSE 10 17 29.56 1001 2 3 0.40 10.16
4:11 am 04:11 Cloudy with Heavy Rain 70 21.1 66 18.9 87 87 S 17 28 29.56 1001 1 2 0.15 3.81
4:15 am 04:15 Cloudy with Heavy Rain 69 20.6 66 18.9 90 90 S 21 33 29.56 1001 1 1 0.34 8.64
4:23 am 04:23 Cloudy with Heavy Rain 68 20 65 18.3 90 90 SW 26 43 29.59 1002 1 1 0.49 12.45
4:31 am 04:31 Cloudy with Rain 66 18.9 63 17.2 90 90 S 21 33 29.59 1002 2 3 0.54 13.72
4:39 am 04:39 Cloudy with Light Rain 65 18.3 62 16.7 90 90 S 20 31 29.59 1002 4 6 0.56 14.22
4:59 am 04:59 Cloudy with Light Rain 63 17.2 58 14.4 84 84 SSE 16 26 29.57 1001 6 10 0.61 15.49
5:59 am 05:59 Mostly Cloudy 64 17.8 60 15.6 87 87 SSE 10 17 29.54 1000 10 16 0.02 0.51
6:29 am 06:29 Mostly Cloudy 64 17.8 61 16.1 90 90 S 9 15 29.53 1000 10 16 0.00 0.00
6:53 am 06:53 Mostly Cloudy 64 18 61 16 88 88 SSW 9 15 29.53 1000 10 16 0.00 0.00
6:59 am 06:59 Mostly Cloudy 64 17.8 60 15.6 87 87 SSW 14 22 29.54 1000 10 16 0.00 0.00
7:59 am 07:59 Partly Cloudy 59 15 47 8.3 64 64 SW 23 37 29.58 1002 10 16 0.00 0.00
8:59 am 08:59 Mostly Sunny 58 14.4 42 5.6 56 56 SW 25 41 29.57 1002 10 16 0.00 0.00
9:59 am 09:59 Mostly Cloudy 57 13.9 44 6.7 62 62 SW 18 30 29.60 1002 10 16 0.00 0.00
10:59 am 10:59 Mostly Cloudy 57 13.9 44 6.7 62 62 SW 20 31 29.61 1003 10 16 0.00 0.00
11:59 am 11:59 Cloudy 57 13.9 44 6.7 62 62 SW 18 30 29.62 1003 10 16 0.00 0.00
12:59 pm 12:59 Cloudy 59 15 45 7.2 60 60 SW 17 28 29.62 1003 10 16 0.00 0.00
1:59 pm 13:59 Partly Cloudy 62 16.7 46 7.8 56 56 SW 18 30 29.62 1003 10 16 0.00 0.00
2:59 pm 14:59 Mostly Cloudy 61 16.1 43 6.1 52 52 WSW 18 30 29.62 1003 10 16 0.00 0.00
3:59 pm 15:59 Mostly Cloudy 62 16.7 43 6.1 50 50 W 18 30 29.61 1003 10 16 0.00 0.00
4:59 pm 16:59 Mostly Cloudy 63 17.2 39 3.9 41 41 WSW 16 26 29.62 1003 10 16 0.00 0.00
5:59 pm 17:59 Mostly Cloudy 61 16.1 39 3.9 44 44 SW 16 26 29.64 1004 10 16 0.00 0.00
6:59 pm 18:59 Mostly Cloudy 60 15.6 40 4.4 47 47 W 13 20 29.66 1005 10 16 0.00 0.00
7:59 pm 19:59 Mostly Cloudy 59 15 39 3.9 48 48 W 12 19 29.68 1005 10 16 0.00 0.00
8:59 pm 20:59 Mostly Cloudy 58 14.4 34 1.1 41 41 W 9 15 29.70 1006 10 16 0.00 0.00
9:59 pm 21:59 Cloudy 57 13.9 35 1.7 44 44 W 17 28 29.72 1006 10 16 0.00 0.00
10:59 pm 22:59 Cloudy 56 13.3 34 1.1 44 44 WNW 16 26 29.74 1007 10 16 0.00 0.00
11:59 pm 23:59 Cloudy 54 12.2 34 1.1 47 47 NW 15 24 29.75 1007 10 16 0.00 0.00

Powered by AerisWeather